Location: Poughquag
(41.6090°N, 73.6820°W)
Time: 20:19:35
(UTC-04:00)

STARLINK-1348 - Pass Details

Date: 29 May 2020
Orbit: 379 x 380 km, 53.0° (Epoch: 04 July)

Event Time Altitude Azimuth Distance (km) Brightness Sun altitude
Rises 04:42:29 0° 301° (WNW) 2,254 6.5 -7.3°
Reaches altitude 10° 04:46:00 10° 343° (NNW) 1,402 6.0 -6.8°
Maximum altitude 04:46:45 11° 357° (N) 1,367 6.1 -6.7°
Drops below altitude 10° 04:47:30 10° 11° (N) 1,402 6.5 -6.5°
Sets 04:51:01 0° 53° (NE) 2,256 9.7 -6.0°
